Regional Weather Roundup
Issued by NWS

Home | Current Version | Previous Version | Text Only | Print | Product List | Glossary On
Versions: 1 2 3 4 5 6 7 8 9 10 11 12 13 14 15 16 17 18 19 20 21 22 23 24 25 26 27 28 29 30 31 32 33 34 35 36 37 38 39 40 41 42 43 44 45 46 47 48 49 50
000
ASUS44 KJAN 281510
RWRMS

MISSISSIPPI HOURLY WEATHER ROUNDUP
NATIONAL WEATHER SERVICE JACKSON MS
1000 AM CDT TUE JUL 28 2015

NOTE: "FAIR: INDICATES FEW OR NO CLOUDS BELOW 12,000 FEET WITH NO
SIGNIFICANT WEATHER AND/OR OBSTRUCTIONS TO VISIBILITY.

MSZ001>002-007>008-010>013-018>021-025>028-034>036-281600-
NORTHWEST MISSISSIPPI

CITY           SKY/WX    TMP DP  RH WIND       PRES   REMARKS
CLARKSDALE     FAIR      91  77  62 SW3       30.01F HX 105
CLEVELAND      FAIR      89  82  80 SW5       30.00F HX 110
GREENWOOD      SUNNY     89  75  63 W5        30.01S HX  99
GREENVILLE     SUNNY     90  77  65 VRB3      30.00S HX 103
OLIVE BRANCH   MOSUNNY   90  79  70 SW8       30.02S HX 105
TUNICA         SUNNY     90  75  62 S6        30.01F HX 100
$$

MSZ003>006-009-014>017-022>024-029>033-037>039-281600-
NORTHEAST MISSISSIPPI

CITY           SKY/WX    TMP DP  RH WIND       PRES   REMARKS
COLUMBUS AFB   SUNNY     91  74  57 W6        30.01F HX  99
CORINTH        FAIR      90  75  62 SW6       30.01S HX 100
GOLDN TRIANGLE SUNNY     90  73  58 CALM      30.02F HX  98
STARKVILLE     FAIR      88  75  66 W3        30.02F HX  97
TUPELO         SUNNY     91  75  59 W3        30.01F HX 101
$$

MSZ040-058-281600-
CENTRAL MISSISSIPPI

CITY           SKY/WX    TMP DP  RH WIND       PRES   REMARKS
JACKSON INTL   MOSUNNY   90  75  61 VRB3      30.03F HX 100
JACKSON HAWKNS SUNNY     88  75  65 W3        30.03F HX  97
MERIDIAN KEY   MOSUNNY   88  74  63 NW3       30.03S HX  96
MERIDIAN NAS   SUNNY     90  72  55 W8        30.03S HX  97
VICKSBURG      SUNNY     89  77  67 CALM      30.02S HX 101
$$

MSZ059>079-281600-
SOUTH MISSISSIPPI

CITY           SKY/WX    TMP DP  RH WIND       PRES   REMARKS
BROOKHAVEN     FAIR      88  75  66 W5        30.06S HX  97
HATTIESBURG    SUNNY     88  74  63 NW7       30.03F HX  96
MCCOMB         SUNNY     87  76  69 W5        30.04S HX  97
NATCHEZ        SUNNY     86  75  70 W5        30.04S HX  95
PINE BELT      SUNNY     90 N/A N/A NW8       30.05F
$$

MSZ080>082-281600-
COASTAL MISSISSIPPI

CITY           SKY/WX    TMP DP  RH WIND       PRES   REMARKS
BAY ST LOUIS   SUNNY     88  72  58 VRB5        N/A  HX  94
BILOXI         SUNNY     89  76  64 VRB3      30.02S HX 101
PASCAGOULA     SUNNY     88  76  67 NW6       30.02S HX  99
GULFPORT       SUNNY     89  74  60 N9        30.01F HX  98
$$


USA.gov is the U.S. government's official web portal to all federal, state and local government web resources and services.